Regional Weather Roundup
Issued by NWS

Home | Current Version | Previous Version | Graphics & Text | Print | Product List | Glossary On
Versions: 1 2 3 4 5 6 7 8 9 10 11 12 13 14 15 16 17 18 19 20 21 22 23 24 25 26 27 28 29 30 31 32 33 34 35 36 37 38 39 40 41 42 43 44 45 46 47 48 49 50
000
ASUS45 KBOU 192107
RWRCO

WEATHER ROUNDUP FOR COLORADO
NATIONAL WEATHER SERVICE DENVER/BOULDER CO
300 PM MDT SUN OCT 19 2014

NOTE: "FAIR" INDICATES FEW OR NO CLOUDS BELOW 12000 FEET WITH NO
SIGNIFICANT WEATHER AND/OR OBSTRUCTIONS TO VISIBILITY.

COZ001>005-013-030-031-192200-
...NORTHWEST COLORADO...

CITY           SKY/WX    TMP DP  RH WIND       PRES   REMARKS
CRAIG          SUNNY     71  30  21 CALM      30.13F
HAYDEN         SUNNY     66  28  24 CALM      30.15F
MEEKER         SUNNY     70  33  25 S7        30.12F
MOUNT WERNER   NOT AVBL
STEAMBOAT SPGS SUNNY     66  28  24 NW6       30.16F
WALDEN         SUNNY     61  21  21 CALM      30.23F
$$

COZ006>008-011-192200-
...WEST CENTRAL VALLEYS...

CITY           SKY/WX    TMP DP  RH WIND       PRES   REMARKS
GRAND JUNCTION SUNNY     74  42  31 VRB3      30.05F
MONTROSE       MOSUNNY   72  36  26 VRB7      30.10F
EAGLE          MOSUNNY   66  34  30 CALM      30.16F
RIFLE          SUNNY     71  32  23 W5        30.08F
DELTA          MOSUNNY   77  33  20 SW5       30.06F
NUCLA          MOSUNNY   70  36  28 CALM      30.13F
$$

COZ017>023-064>068-192200-
...SOUTHWEST COLORADO...

CITY           SKY/WX    TMP DP  RH WIND       PRES   REMARKS
DURANGO        MOSUNNY   68  39  34 S7        30.13F
CORTEZ         LGT RAIN  68  44  42 S9        30.10F
PAGOSA SPRINGS MOSUNNY   64  31  28 S7        30.19F
TELLURIDE      PTSUNNY   53  36  51 S5        30.30F
WOLF CREEK PAS CLOUDY    43  32  65 SW9       30.42S THUNDER
$$

COZ009-010-012-014-032>034-037-058>063-192200-
...CENTRAL COLORADO...

CITY           SKY/WX    TMP DP  RH WIND       PRES   REMARKS
ASPEN          MOSUNNY   64  33  31 NW8       30.18F
BUENA VISTA    PTSUNNY   64  29  26 CALM      30.21F
COPPER MTN     MOSUNNY   46  27  46 S10       30.45S
BERTHOUD PASS  CLOUDY    37  34  87 NE3       30.49S
COTTONWOOD PAS LGT RAIN  54  34  47 NW8       30.33S
GUNNISON       MOSUNNY   64  30  27 S3        30.21F
KREMMLING      SUNNY     66  27  22 CALM        N/A
LEADVILLE      CLOUDY    52  26  36 S5        30.30F
SALIDA         PTSUNNY   68  32  26 SE3       30.25F
SUNLIGHT       MOSUNNY   54  34  47 W3        30.39S
WILKERSON PASS NOT AVBL
$$

COZ069>075-192200-
...SAN LUIS VALLEY/SANGRE DE CRISTO MOUNTAINS...

CITY           SKY/WX    TMP DP  RH WIND       PRES   REMARKS
ALAMOSA        SUNNY     67  31  26 VRB3      30.18F
LA VETA PASS   MOSUNNY   50  32  50 NE8       30.35S
SAGUACHE       MOSUNNY   64  34  32 SW5       30.21F
$$

COZ035-036-038>040-192200-
...NORTHERN COLORADO FRONT RANGE...

CITY           SKY/WX    TMP DP  RH WIND       PRES   REMARKS
DENVER INTL AP MOSUNNY   74  28  18 CALM      30.10F
DMNS CITY PARK   N/A     73  28  19 NE6G12    30.08S
AURORA         MOSUNNY   72  30  21 N2        30.12F
FRONT RANGE AP NOT AVBL
ERIE MUNI ARPT SUNNY     74  29  19 E9        30.08F
BOULDER MUN AP SUNNY     73  32  21 SE5       30.08F
CENTENNIAL     MOSUNNY   71  30  21 SE5       30.12F
BROOMFIELD     MOSUNNY   73  30  20 E6        30.11F
FORT COLLINS   SUNNY     75  36  23 E10       30.08F
LONGMONT       SUNNY     77  30  17 CALM      30.10S
$$

COZ041-046-047-076>085-087-088-192200-
...PIKES PEAK/PALMER DIVIDE AND SOUTHERN FOOTHILLS...

CITY           SKY/WX    TMP DP  RH WIND       PRES   REMARKS
COLO. SPRINGS  MOSUNNY   71  28  20 VRB3      30.13F
A. F. ACADEMY  MOSUNNY   69  28  22 N6        30.15S
ELLICOTT       NOT AVBL
FALCON         MOSUNNY   70  26  19 NE3       30.18F
FORT CARSON    MOSUNNY   73  31  21 E7        30.11S
LIMON          MOSUNNY   73  32  22 N12       30.09F
MONUMENT HILL  SUNNY     64  30  27 N3        30.18F
TRINIDAD       SUNNY     75  29  18 E5        30.09F
$$

COZ042>045-048>051-090-091-192200-
...NORTHEAST COLORADO...

CITY           SKY/WX    TMP DP  RH WIND       PRES   REMARKS
GREELEY ARPT   SUNNY     73  32  21 E8        30.07F
AKRON          SUNNY     74  38  27 NE8       30.07S
BURLINGTON     SUNNY     77  37  23 N13       30.03S
WRAY           SUNNY     79  36  21 N8        30.01S
STERLING       SUNNY     77  41  27 E5        30.04S
HOLYOKE        SUNNY     79  36  21 NE10      30.03R
FORT MORGAN    SUNNY     75  34  22 NE5       30.07S
$$

COZ086-089-092>099-192200-
...SOUTHEAST COLORADO...

CITY           SKY/WX    TMP DP  RH WIND       PRES   REMARKS
PUEBLO         SUNNY     76  29  17 S5        30.04F
LA JUNTA       SUNNY     80  33  18 NE10      30.01F
LAMAR          SUNNY     79  42  26 VRB6      29.98F
SPRINGFIELD      N/A     77  41  27 N6        30.01F
$$



USA.gov is the U.S. government's official web portal to all federal, state and local government web resources and services.